LDPE-1

Last updated on Thu Nov 21 2024 00:02:44 GMT+0000 (Coordinated Universal Time)

1 49818U 21118B 24325.28680765 -.00000232 00000+0 00000+0 0 9997 2 49818 2.7575 85.8838 0000319 157.0466 237.6693 1.00628008 10888
UTC large
Height (km)
Speed (km/s)
/
Latitude / Longitude
Inclination (degrees)
Orbital Period (minutes)
Azimuth
Elevation
Range (km)
Doppler Factor

Next 0 passes for location: London (51.5072 / 0.1276)

Sorry there are no passes over London.